This demonstration page uses our WeatherBlox Daily Observations layout. Learn more.

Left ArrowRight Arrow

44.8408, -93.29828

Hourly Observations for July 16, 2017

Temp ( °F °C ) Dew Point ( °F °C ) Humidity (%) Winds ( mph kmh ) Pressure ( in mb ) Visibility ( mi km ) Precip ( " mm )
12:53 am 00:53 Clear 74 23.3 60 15.6 62 62 N 10 17 30.03 1017 10 16 0.00 0.00
1:53 am 01:53 Clear 72 22.2 60 15.6 66 66 N 8 13 30.02 1017 10 16 0.00 0.00
2:53 am 02:53 Partly Cloudy 71 21.7 60 15.6 68 68 NNE 8 13 30.03 1017 10 16 0.00 0.00
3:53 am 03:53 Partly Cloudy 69 20.6 60 15.6 73 73 N 6 9 30.04 1017 10 16 0.00 0.00
4:53 am 04:53 Mostly Cloudy 68 20 59 15 73 73 N 7 11 30.04 1017 10 16 0.00 0.00
5:53 am 05:53 Mostly Cloudy 68 20 59 15 73 73 N 7 11 30.05 1018 10 16 0.00 0.00
6:53 am 06:53 Mostly Cloudy 69 20.6 60 15.6 73 73 NNE 7 11 30.06 1018 10 16 0.00 0.00
7:53 am 07:53 Mostly Cloudy 70 21.1 61 16.1 73 73 ENE 6 9 30.07 1018 10 16 0.00 0.00
8:53 am 08:53 Partly Cloudy 74 23.3 63 17.2 69 69 NE 9 15 30.07 1018 10 16 0.00 0.00
9:53 am 09:53 Mostly Sunny 77 25 64 17.8 64 64 E 6 9 30.06 1018 10 16 0.00 0.00
10:53 am 10:53 Partly Cloudy 81 27.2 64 17.8 57 57 E 9 15 30.06 1018 10 16 0.00 0.00
11:53 am 11:53 Mostly Cloudy 80 26.7 64 17.8 58 58 E 7 11 30.05 1018 10 16 0.00 0.00
12:53 pm 12:53 Mostly Cloudy 82 27.8 64 17.8 55 55 undefined N/A 30.05 1018 10 16 0.00 0.00
1:53 pm 13:53 Mostly Cloudy 83 28.3 62 16.7 49 49 E 8 13 30.04 1017 10 16 0.00 0.00
2:53 pm 14:53 Partly Cloudy 84 28.9 60 15.6 44 44 VRB 5 7 30.02 1017 10 16 0.00 0.00
3:53 pm 15:53 Partly Cloudy 85 29.4 59 15 42 42 VRB 5 7 30.01 1016 10 16 0.00 0.00
4:53 pm 16:53 Partly Cloudy 86 30 60 15.6 42 42 E 10 17 29.99 1016 10 16 0.00 0.00
5:53 pm 17:53 Partly Cloudy 85 29.4 59 15 42 42 VRB 3 6 29.99 1016 10 16 0.00 0.00
6:53 pm 18:53 Mostly Sunny 83 28.3 61 16.1 48 48 E 14 22 29.98 1015 10 16 0.00 0.00
7:53 pm 19:53 Mostly Sunny 81 27.2 60 15.6 49 49 ESE 12 19 29.98 1015 10 16 0.00 0.00
8:53 pm 20:53 Mostly Sunny 78 25.6 61 16.1 56 56 E 13 20 29.98 1015 10 16 0.00 0.00
9:53 pm 21:53 Mostly Clear 77 25 62 16.7 60 60 E 9 15 29.99 1016 10 16 0.00 0.00
10:53 pm 22:53 Mostly Clear 74 23.3 61 16.1 64 64 ESE 9 15 29.99 1016 10 16 0.00 0.00
11:53 pm 23:53 Clear 73 22.8 62 16.7 69 69 ESE 12 19 29.99 1016 10 16 0.00 0.00

Powered by AerisWeather